| time (UTC) | temp C | wind direction | speed KPH | gust KPH | rain 1hr cm | rain 24hr cm | rain mn cm | humidity % | barometer mb |
| 20260506171521 | 11 | 232 | 4.8 | 17.7 | 0.00 | 0.00 | 0.00 | 86 | 1012.0 |
| 20260506170020 | 11 | 214 | 4.8 | 12.9 | 0.00 | 0.00 | 0.00 | 86 | 1011.8 |
| 20260506164521 | 11 | 236 | 0.0 | 9.7 | 0.00 | 0.00 | 0.00 | 87 | 1011.8 |
| 20260506163027 | 11 | 227 | 4.8 | 16.1 | 0.00 | 0.00 | 0.00 | 87 | 1012.0 |
| 20260506161520 | 11 | 221 | 6.4 | 19.3 | 0.00 | 0.00 | 0.00 | 86 | 1011.9 |
| 20260506160018 | 11 | 234 | 6.4 | 20.9 | 0.00 | 0.00 | 0.00 | 86 | 1011.8 |
| 20260506154519 | 11 | 229 | 6.4 | 22.5 | 0.00 | 0.00 | 0.00 | 85 | 1011.9 |
| 20260506153023 | 11 | 199 | 12.9 | 29.0 | 0.00 | 0.00 | 0.00 | 85 | 1011.9 |
| 20260506151518 | 11 | 202 | 9.7 | 24.1 | 0.00 | 0.00 | 0.00 | 86 | 1011.9 |
| 20260506150018 | 11 | 216 | 9.7 | 20.9 | 0.00 | 0.00 | 0.00 | 88 | 1011.9 |
| 20260506144516 | 10 | 230 | 16.1 | 24.1 | 0.00 | 0.00 | 0.00 | 88 | 1011.8 |
| 20260506143023 | 11 | 192 | 16.1 | 25.7 | 0.00 | 0.00 | 0.00 | 89 | 1011.7 |
| 20260506141515 | 10 | 234 | 16.1 | 27.4 | 0.00 | 0.00 | 0.00 | 89 | 1011.6 |
| 20260506140019 | 10 | 207 | 14.5 | 24.1 | 0.00 | 0.00 | 0.00 | 89 | 1011.4 |
| 20260506134516 | 10 | 230 | 4.8 | 20.9 | 0.00 | 0.00 | 0.00 | 91 | 1011.5 |
| 20260506133016 | 10 | 244 | 6.4 | 22.5 | 0.00 | 0.00 | 0.00 | 92 | 1011.4 |
| 20260506131514 | 10 | 233 | 12.9 | 30.6 | 0.00 | 0.00 | 0.00 | 92 | 1011.4 |
| 20260506130012 | 10 | 216 | 9.7 | 30.6 | 0.00 | 0.00 | 0.00 | 93 | 1011.4 |
| 20260506124513 | 10 | 238 | 11.3 | 22.5 | 0.00 | 0.00 | 0.00 | 93 | 1011.5 |
| 20260506123012 | 9 | 209 | 17.7 | 27.4 | 0.00 | 0.00 | 0.00 | 93 | 1011.3 |
| 20260506121511 | 10 | 254 | 14.5 | 32.2 | 0.00 | 0.00 | 0.00 | 94 | 1011.1 |
| 20260506120010 | 10 | 215 | 17.7 | 30.6 | 0.00 | 0.00 | 0.00 | 94 | 1010.9 |
| 20260506114510 | 10 | 268 | 17.7 | 37.0 | 0.00 | 0.00 | 0.00 | 94 | 1010.8 |
| 20260506113010 | 10 | 209 | 17.7 | 48.3 | 0.00 | 0.00 | 0.00 | 94 | 1010.4 |
| 20260506111505 | 11 | 232 | 30.6 | 46.7 | 0.00 | 0.00 | 0.00 | 92 | 1009.9 |
| 20260506110003 | 11 | 238 | 22.5 | 29.0 | 0.00 | 0.00 | 0.00 | 91 | 1009.8 |
| 20260506104504 | 12 | 223 | 19.3 | 29.0 | 0.00 | 0.00 | 0.00 | 90 | 1009.6 |
| 20260506103108 | 12 | 244 | 11.3 | 17.7 | 0.00 | 0.00 | 0.00 | 91 | 1009.6 |
| 20260506101558 | 12 | 249 | 9.7 | 14.5 | 0.00 | 0.00 | 0.00 | 91 | 1009.6 |
| 20260506100058 | 12 | 248 | 8.0 | 12.9 | 0.00 | 0.00 | 0.00 | 91 | 1009.4 |
| 20260506094558 | 12 | 259 | 4.8 | 11.3 | 0.00 | 0.00 | 0.00 | 92 | 1009.4 |
| 20260506093056 | 12 | 267 | 0.0 | 3.2 | 0.00 | 0.00 | 0.00 | 92 | 1009.4 |
| 20260506091556 | 11 | 266 | 1.6 | 4.8 | 0.00 | 0.00 | 0.00 | 92 | 1009.5 |
| 20260506090050 | 11 | 290 | 1.6 | 8.0 | 0.00 | 0.00 | 0.00 | 91 | 1009.1 |
| 20260506084550 | 12 | 217 | 0.0 | 3.2 | 0.00 | 0.00 | 0.00 | 90 | 1009.2 |
| 20260506083050 | 12 | 117 | 0.0 | 0.0 | 0.00 | 0.00 | 0.00 | 89 | 1009.1 |
| 20260506081556 | 12 | 111 | 0.0 | 0.0 | 0.00 | 0.00 | 0.00 | 90 | 1009.0 |
| 20260506073048 | 11 | 110 | 0.0 | 0.0 | 0.00 | 0.00 | 0.00 | 92 | 1009.0 |
| 20260506071545 | 11 | 113 | 0.0 | 0.0 | 0.00 | 0.00 | 0.00 | 93 | 1009.1 |
| 20260506061539 | 10 | 113 | 0.0 | 0.0 | 0.00 | 0.00 | 0.00 | 96 | 1009.1 |
| 20260506044531 | 9 | 111 | 0.0 | 6.4 | 0.00 | 0.00 | 0.00 | 95 | 1009.2 |
| 20260506043019 | 10 | 111 | 4.8 | 11.3 | 0.00 | 0.00 | 0.00 | 95 | 1009.2 |
| 20260506041515 | 10 | 100 | 3.2 | 8.0 | 0.00 | 0.00 | 0.00 | 94 | 1009.4 |
| 20260506040025 | 10 | 61 | 1.6 | 4.8 | 0.00 | 0.00 | 0.00 | 95 | 1009.3 |
| 20260506034513 | 10 | 341 | 0.0 | 4.8 | 0.00 | 0.00 | 0.00 | 95 | 1009.5 |
| 20260506033014 | 10 | 329 | 4.8 | 8.0 | 0.00 | 0.00 | 0.00 | 94 | 1009.7 |
| 20260506031510 | 10 | 308 | 1.6 | 6.4 | 0.00 | 0.00 | 0.00 | 92 | 1009.8 |
| 20260506030007 | 11 | 307 | 3.2 | 6.4 | 0.00 | 0.00 | 0.00 | 90 | 1009.9 |
| 20260506024516 | 11 | 193 | 0.0 | 8.0 | 0.00 | 0.00 | 0.00 | 89 | 1010.2 |
| 20260506023004 | 11 | 194 | 3.2 | 11.3 | 0.00 | 0.00 | 0.00 | 89 | 1010.4 |
| 20260506021504 | 11 | 170 | 3.2 | 9.7 | 0.00 | 0.00 | 0.00 | 90 | 1010.4 |
| 20260506020002 | 11 | 169 | 0.0 | 4.8 | 0.00 | 0.00 | 0.00 | 90 | 1010.4 |
| 20260506014559 | 11 | 184 | 0.0 | 6.4 | 0.00 | 0.00 | 0.00 | 90 | 1010.7 |
| 20260506013057 | 11 | 200 | 0.0 | 3.2 | 0.00 | 0.00 | 0.00 | 92 | 1011.0 |
| 20260506011556 | 11 | 196 | 0.0 | 0.0 | 0.00 | 0.00 | 0.00 | 93 | 1011.2 |
| 20260506010057 | 11 | 196 | 0.0 | 0.0 | 0.00 | 0.00 | 0.00 | 92 | 1011.3 |
| 20260506004554 | 11 | 196 | 0.0 | 0.0 | 0.00 | 0.00 | 0.00 | 92 | 1011.2 |
| 20260506003057 | 11 | 196 | 1.6 | 9.7 | 0.00 | 0.00 | 0.00 | 92 | 1011.5 |
| 20260506001604 | 11 | 160 | 3.2 | 9.7 | 0.00 | 0.00 | 0.00 | 92 | 1011.7 |
| 20260506000048 | 11 | 234 | 4.8 | 9.7 | 0.00 | 0.00 | 0.00 | 93 | 1011.6 |
| 20260505234607 | 11 | 167 | 0.0 | 0.0 | 0.00 | 0.00 | 0.00 | 94 | 1011.7 |
| 20260505233048 | 11 | 159 | 0.0 | 4.8 | 0.00 | 0.00 | 0.00 | 95 | 1011.8 |
| 20260505231543 | 10 | 143 | 0.0 | 4.8 | 0.00 | 0.00 | 0.00 | 95 | 1012.1 |
| 20260505230046 | 10 | 125 | 4.8 | 8.0 | 0.00 | 0.00 | 0.00 | 95 | 1012.2 |
| 20260505224541 | 10 | 130 | 0.0 | 4.8 | 0.00 | 0.00 | 0.00 | 95 | 1012.2 |
| 20260505223049 | 10 | 113 | 0.0 | 0.0 | 0.00 | 0.00 | 0.00 | 95 | 1012.2 |
| 20260505221540 | 10 | 113 | 0.0 | 0.0 | 0.00 | 0.00 | 0.00 | 95 | 1012.2 |
| 20260505220040 | 10 | 113 | 4.8 | 8.0 | 0.00 | 0.00 | 0.00 | 94 | 1012.2 |
| 20260505214551 | 11 | 115 | 3.2 | 6.4 | 0.00 | 0.00 | 0.00 | 94 | 1012.3 |
| 20260505213037 | 11 | 123 | 3.2 | 8.0 | 0.00 | 0.00 | 0.00 | 94 | 1012.3 |
| 20260505211542 | 11 | 129 | 4.8 | 11.3 | 0.00 | 0.00 | 0.00 | 94 | 1012.5 |
| 20260505210036 | 11 | 111 | 6.4 | 11.3 | 0.00 | 0.00 | 0.00 | 93 | 1012.4 |
| 20260505204537 | 11 | 117 | 1.6 | 6.4 | 0.00 | 0.00 | 0.00 | 93 | 1012.6 |
| 20260505203049 | 11 | 115 | 4.8 | 11.3 | 0.00 | 0.00 | 0.00 | 92 | 1012.4 |
| 20260505201535 | 12 | 117 | 6.4 | 12.9 | 0.00 | 0.00 | 0.00 | 93 | 1012.3 |
| 20260505200034 | 12 | 121 | 4.8 | 11.3 | 0.00 | 0.00 | 0.00 | 92 | 1012.1 |
| 20260505194535 | 12 | 120 | 3.2 | 6.4 | 0.00 | 0.00 | 0.00 | 91 | 1012.1 |
| 20260505193034 | 12 | 119 | 6.4 | 12.9 | 0.00 | 0.00 | 0.00 | 91 | 1011.9 |
| 20260505191538 | 12 | 131 | 4.8 | 11.3 | 0.00 | 0.00 | 0.00 | 90 | 1011.7 |
| 20260505190035 | 13 | 126 | 4.8 | 8.0 | 0.00 | 0.00 | 0.00 | 87 | 1011.5 |
| 20260505184544 | 13 | 121 | 3.2 | 9.7 | 0.00 | 0.00 | 0.00 | 85 | 1011.4 |
| 20260505183039 | 14 | 193 | 4.8 | 12.9 | 0.00 | 0.00 | 0.00 | 84 | 1011.4 |
| 20260505181531 | 14 | 187 | 4.8 | 11.3 | 0.00 | 0.00 | 0.00 | 84 | 1011.3 |
| 20260505180031 | 14 | 190 | 8.0 | 11.3 | 0.00 | 0.00 | 0.00 | 83 | 1011.5 |
| 20260505174531 | 14 | 192 | 3.2 | 14.5 | 0.00 | 0.00 | 0.00 | 86 | 1011.4 |
| 20260505173031 | 13 | 172 | 3.2 | 12.9 | 0.00 | 0.00 | 0.00 | 86 | 1011.5 |